Regional Weather Roundup
Issued by NWS Cleveland, OH

Home | Current Version | Previous Version | Graphics & Text | Print | Product List | Glossary On
Versions: 1 2 3 4 5 6 7 8 9 10 11 12 13 14 15 16 17 18 19 20 21 22 23 24 25 26 27 28 29 30 31 32 33 34 35 36 37 38 39 40 41 42 43 44 45 46 47 48 49 50
398
ASUS41 KCLE 261710
RWRCLE
OHIO REGIONAL WEATHER ROUNDUP
NATIONAL WEATHER SERVICE CLEVELAND, OH
100 PM EDT WED JUL 26 2017

NOTE: "FAIR" INDICATES FEW OR NO CLOUDS BELOW 12,000 FEET WITH NO
SIGNIFICANT WEATHER AND/OR OBSTRUCTIONS TO VISIBILITY.

OHZ001>008-015>018-024>027-034-035-043-044-261800-
   NORTHWEST OHIO

CITY           SKY/WX    TMP DP  RH WIND       PRES   REMARKS
DEFIANCE       SUNNY    N/A N/A N/A SW6       30.13F
FINDLAY        CLOUDY    76  60  57 VRB5      30.13F
TOLEDO EXPRESS PTSUNNY   76  62  62 VRB3      30.12F
TOLEDO EXEC    PTSUNNY   78  64  61 SW9       30.13F
LIMA           MOSUNNY   75  63  66 S9        30.14F
$$

OHZ009>014-019>023-028>033-038-089-261800-
   NORTHEAST OHIO

CITY           SKY/WX    TMP DP  RH WIND       PRES   REMARKS
CLE-HOPKINS    PTSUNNY   79  62  56 NW5       30.16F
CLE-LAKEFRONT  MOSUNNY   74  63  68 N6        30.14F
CUY CO. ARPT   CLOUDY    77  63  61 MISG      30.16
LORAIN-ELYRIA  MOSUNNY   76  58  53 CALM      30.15F
ASHTABULA      PTSUNNY   75  58  55 S7        30.17F
AKRON-CANTON   MOSUNNY   77  58  51 CALM      30.16F
WOOSTER        CLOUDY    75  60  59 CALM      30.17F
MANSFIELD      MOSUNNY   75  60  59 E5        30.17F
YOUNGSTOWN     CLOUDY    76  60  57 VRB3      30.17F
$$

OHZ042-051>053-060>062-070>072-077>081-261800-
  SOUTHWEST OHIO

CITY           SKY/WX    TMP DP  RH WIND       PRES   REMARKS
CINC-COVINGTON MOSUNNY   82  66  58 E6        30.14F
CINC-LUNKEN    SUNNY     81  66  60 VRB3      30.13F
HAMILTON       SUNNY     80  66  62 E5        30.14F
DAYTON         MOSUNNY   76  57  51 CALM      30.16F
WRIGHT-PAT AFB SUNNY     76  61  59 S6        30.14F
DAYTON GENERAL SUNNY     78  59  51 CALM      30.14F
WILMINGTON     SUNNY     76  64  66 CALM      30.16F
$$

OHZ036-037-039>041-045>050-054>059-063>069-073>076-082>088-261800-
  CENTRAL AND SOUTHEAST OHIO

CITY           SKY/WX    TMP DP  RH WIND       PRES   REMARKS
COLUMBUS       MOSUNNY   77  63  61 S5        30.15F
OSU AIRPORT    SUNNY     76  62  62 NE6       30.15F
BOLTON FIELD   MOSUNNY   73  63  68 S3        30.17F
RICKENBACK AFB SUNNY     73  61  64 CALM      30.15F
NEWARK         CLOUDY    76  61  59 CALM      30.15F
MARION         SUNNY     74  61  63 VRB7      30.16F
LANCASTER      CLOUDY    76  62  62 NE3       30.16F
ZANESVILLE     CLOUDY    76  61  59 S6        30.16F
NEW PHILLY     NOT AVBL
$$




USA.gov is the U.S. government's official web portal to all federal, state and local government web resources and services.